COSMOS 2251 DEB, 38067

Orbit data source: Space-Track

COSMOS 2251 DEB, 38067 is space debris in LEO originally from a launch on Wed, 16 Jun 1993 UTC launched from the Plesetsk Missile And Space Complex (PKMTR). The debris from Iridium 33, an American commercial communications satellite, has been tracked extensively since its accidental collision with the defunct Russian satellite Cosmos 2251 in 2009. This event, occurring at high speed in low Earth orbit (LEO), generated thousands of pieces of space debris, significantly increasing the risk of further collisions. The Iridium 33 debris cloud has impacted space traffic management and orbital debris mitigation strategies, making it a subject of ongoing study in space situational awareness.

Loading next visibility...
Identifier
38067, 1993-036BRZ
Orbit
LEO
Country
Flag of CISCIS
Related business
Manufacturer
Unknown
Mission
Spacecraft
Bus & Motor
Unknown
Mass
Unknown
Launch date (UTC)
1993-06-16 (33 years ago)
Launch vehicle
Unknown
Launch site
Plesetsk Missile And Space Complex (PKMTR)
Object type
Payload
Rocket body
Debris
Shape & HBR
Unknown shape, 0.1 m
Radar Cross Section
Small (<0.1 m²)

Expand to show TLE details & history
Last TLE update: 3 days ago

TLE from 3 days ago
0 COSMOS 2251 DEB
1 38067U 93036BRZ 26233.54101899  .00000847  00000-0  16988-3 0  9992
2 38067  74.0172 152.2280 0071557 237.9346 297.2855 14.61836588662345
Epoch: 2026-08-21T12:59Z
TLE epoch observation values (Epoch: 2026-08-21T12:59:04.040Z)
Latitude
5.21851°
Longitude
166.10596°
Altitude
666.472 km
Speed
7.537 km/s
True Right ascension
22h 02m 56s
True Declination
5° 11' 13"
Sunlit
Object was in full shadow at epoch
Visualization orbit readout
Latitude
Unknown
Longitude
Unknown
Altitude
Unknown
Speed
Unknown
Apparent Right ascension
Unknown
Apparent Declination
Unknown
Sunlit
N/A
Visualization observer readout
Local Sidereal Time
12:11:37
Azimuth
Unknown
Elevation
Unknown
Doppler factor
Unknown
Orbital elements
Apogee altitude
735.388 km
Perigee altitude
634.306 km
Semi-major axis
7,062.984 km
Eccentricity
0.00716
Inclination
74.0172°
RAAN
152.228°
Arg. of periapsis
237.9346°
True anomaly
296.55377°
Mean anomaly
297.2855°
Eccentric anomaly
296.91994°
Mean motion
3.65646 °/min
Orbital period
98.46 mins
BSTAR
0.00016988
Loading maneuver chart data...
Computing Atmospheric mass density...

Documentation

Showing up to 5 results
|